Location: Caltech
(34.1382°N, 118.1253°W)
Time: 06:53:20
(UTC-07:00)

Gurwin Techsat 1B - Visible Passes

Search period start: 01 August 2014 00:00
Search period end: 11 August 2014 00:00
Orbit: 812 x 815 km, 98.5° (Epoch: 01 August)

Date Brightness Start Highest point End Pass type
(mag) Time Alt. Az. Time Alt. Az. Time Alt. Az.
01 Aug 8.8 03:36:34 10° NNE 03:41:51 68° ESE 03:43:09 49° SSE visible
01 Aug 10.5 05:18:48 10° NW 05:21:11 13° WNW 05:23:34 10° W visible
02 Aug 9.5 03:14:12 10° NNE 03:19:10 40° E 03:20:10 36° SE visible
02 Aug 10.0 04:54:53 10° NNW 04:58:49 22° WNW 05:01:23 15° WSW visible
03 Aug 10.3 02:52:11 10° NE 02:56:25 24° E 02:57:11 23° ESE visible
03 Aug 9.4 04:31:37 10° N 04:36:23 35° WNW 04:38:24 26° WSW visible
04 Aug 10.9 02:30:54 10° ENE 02:33:35 14° E 02:34:12 14° E visible
04 Aug 8.7 04:08:39 10° N 04:13:52 58° WNW 04:15:25 42° SW visible
05 Aug 8.5 03:45:57 10° NNE 03:51:17 84° ESE 03:52:25 57° S visible
05 Aug 10.7 05:29:42 10° NW 05:30:28 10° WNW 05:31:13 10° WNW visible
06 Aug 9.2 03:23:28 10° NNE 03:28:37 50° E 03:29:26 46° SE visible
06 Aug 10.2 05:04:44 10° NNW 05:08:08 18° WNW 05:10:39 13° W visible
07 Aug 10.0 03:01:17 10° NE 03:05:54 30° E 03:06:26 29° ESE visible
07 Aug 9.7 04:41:15 10° NNW 04:45:44 28° WNW 04:47:39 23° WSW visible
08 Aug 10.7 02:39:35 10° NE 02:43:06 18° E 02:43:27 18° E visible
08 Aug 9.0 04:18:11 10° N 04:23:14 46° WNW 04:24:40 37° WSW visible
09 Aug 8.5 03:55:22 10° N 04:00:41 78° WNW 04:01:40 59° SW visible
10 Aug 8.8 03:32:47 10° NNE 03:38:03 63° ESE 03:38:41 58° SE visible
10 Aug 10.4 05:14:45 10° NNW 05:17:26 14° WNW 05:19:54 11° W visible
